DW6658 Weather Reports


time (UTC)temp
F
wind
direction
speed
knots
gust
knots
rain 1hr
in
rain 24hr
in
rain mn
in
humidity
%
barometer
mb
20260906150112 71 110 2.6 7.8 0.00 0.00 0.00 89 1020.6
20260906144556 70 138 0.0 7.8 0.00 0.00 0.00 90 1020.5
20260906143055 70 142 0.0 2.6 0.00 0.00 0.00 91 1020.5
20260906141556 70 296 0.9 6.1 0.00 0.00 0.00 92 1020.3
20260906140104 69 123 1.7 4.3 0.00 0.00 0.00 93 1020.2
20260906134558 69 116 3.5 7.8 0.00 0.00 0.00 93 1020.2
20260906133120 68 123 0.9 6.1 0.00 0.00 0.00 94 1020.1
20260906131601 68 110 1.7 4.3 0.00 0.00 0.00 94 1019.7
20260906130109 68 134 2.6 7.0 0.00 0.00 0.00 95 1019.8
20260906124558 68 133 2.6 7.0 0.00 0.00 0.00 95 1019.8
20260906123057 68 236 2.6 7.0 0.00 0.00 0.00 95 1019.7
20260906121557 67 145 2.6 5.2 0.00 0.00 0.00 95 1019.7
20260906120055 67 0 0.9 5.2 0.00 0.00 0.00 95 1019.4
20260906114602 67 0 0.9 4.3 0.00 0.00 0.00 96 1019.5
20260906113101 67 229 0.9 6.1 0.00 0.00 0.00 96 1019.6
20260906111618 67 139 0.9 3.5 0.00 0.00 0.00 96 1019.4
20260906104601 67 0 0.0 0.0 0.00 0.00 0.00 96 1018.7
20260906103101 67 0 0.0 0.9 0.00 0.00 0.00 96 1018.7
20260906101556 67 0 0.0 2.6 0.00 0.00 0.00 96 1018.5
20260906100100 67 110 0.0 3.5 0.00 0.00 0.00 96 1018.4
20260906094601 67 0 0.0 0.0 0.00 0.00 0.00 96 1018.3
20260906093102 67 0 0.0 0.0 0.00 0.00 0.00 96 1018.1
20260906091601 67 0 0.0 0.0 0.00 0.00 0.00 96 1018.0
20260906090105 67 0 0.0 0.0 0.00 0.00 0.00 96 1018.0
20260906084600 67 0 0.0 0.0 0.00 0.00 0.00 96 1017.9
20260906083057 67 0 0.0 0.0 0.00 0.00 0.00 96 1018.1
20260906081603 66 0 0.0 0.0 0.00 0.00 0.00 96 1018.2
20260906074601 66 0 0.0 0.0 0.00 0.00 0.00 96 1018.5
20260906073057 66 0 0.0 0.0 0.00 0.00 0.00 96 1018.4
20260906071600 67 0 0.0 0.0 0.00 0.00 0.00 96 1018.3
20260906070058 67 0 0.0 0.0 0.00 0.00 0.00 96 1018.5
20260906064558 67 0 0.0 0.0 0.00 0.00 0.00 96 1018.6
20260906063058 67 0 0.0 0.0 0.00 0.00 0.00 96 1018.6
20260906061600 67 0 0.0 0.0 0.00 0.00 0.00 96 1018.7
20260906060106 67 0 0.0 0.0 0.00 0.00 0.00 95 1018.8
20260906054607 67 0 0.0 0.0 0.00 0.00 0.00 95 1018.7
20260906053101 67 0 0.0 0.0 0.00 0.00 0.00 95 1018.7
20260906051613 67 0 0.0 0.0 0.00 0.00 0.00 95 1018.8
20260906050059 67 0 0.0 0.0 0.00 0.00 0.00 95 1018.8
20260906044606 67 0 0.0 0.0 0.00 0.00 0.00 95 1018.7
20260906043101 68 0 0.0 0.0 0.00 0.00 0.00 95 1018.9
20260906041602 68 0 0.0 0.0 0.00 0.00 0.00 94 1018.9
20260906040136 69 0 0.0 0.0 0.00 0.00 0.00 94 1019.1
20260906034605 69 0 0.0 0.0 0.00 0.00 0.00 94 1018.8
20260906033106 69 0 0.0 0.0 0.00 0.00 0.00 94 1019.1
20260906031601 69 0 0.0 0.0 0.00 0.00 0.00 94 1018.6
20260906030057 69 0 0.0 0.0 0.00 0.00 0.00 94 1018.6
20260906024612 69 0 0.0 0.0 0.00 0.00 0.00 93 1018.5
20260906023103 69 0 0.0 0.0 0.00 0.00 0.00 94 1018.3
20260906021554 69 0 0.0 0.0 0.00 0.00 0.00 93 1017.8
20260906020103 70 0 0.0 0.0 0.00 0.00 0.00 92 1017.3
20260906014559 70 0 0.0 0.0 0.00 0.00 0.00 91 1017.2
20260906013102 71 0 0.0 0.0 0.00 0.00 0.00 90 1016.8
20260906011604 72 0 0.0 0.0 0.00 0.00 0.00 87 1016.8
20260906010106 73 0 0.0 0.0 0.00 0.00 0.00 86 1016.8
20260906004555 76 0 0.0 0.0 0.00 0.00 0.00 80 1016.8
20260906003102 78 0 0.0 0.0 0.00 0.00 0.00 76 1016.5
20260906001608 80 0 0.0 0.0 0.00 0.00 0.00 72 1016.4
20260906000107 82 0 0.0 0.0 0.00 0.00 0.00 69 1016.5
20260905234604 81 0 0.0 6.1 0.00 0.00 0.00 71 1016.4
20260905233104 81 0 0.0 0.9 0.00 0.00 0.00 71 1016.1
20260905231600 78 0 0.0 5.2 0.00 0.00 0.00 75 1016.4
20260905230105 79 0 0.0 7.8 0.00 0.00 0.00 75 1015.9
20260905224618 79 0 0.9 9.6 0.00 0.00 0.00 75 1016.2
20260905223116 80 0 0.0 4.3 0.00 0.00 0.00 75 1016.1
20260905221605 80 0 0.0 6.1 0.00 0.00 0.00 73 1016.0
20260905220108 80 0 0.0 9.6 0.00 0.00 0.00 73 1015.8
20260905214605 81 63 0.0 9.6 0.00 0.00 0.00 72 1015.9
20260905213105 82 77 0.9 7.8 0.00 0.00 0.00 70 1016.1
20260905211557 83 0 1.7 10.4 0.00 0.00 0.00 68 1016.3
20260905210108 84 86 0.9 5.2 0.00 0.00 0.00 68 1016.6
20260905204601 83 133 0.0 2.6 0.00 0.00 0.00 68 1017.0
20260905203102 83 0 0.0 3.5 0.00 0.00 0.00 69 1016.9
20260905201607 84 0 0.0 2.6 0.00 0.00 0.00 70 1017.1
20260905200106 85 49 0.0 0.9 0.00 0.00 0.00 67 1017.6
20260905194559 83 0 0.0 1.7 0.00 0.00 0.00 69 1017.6
20260905193104 85 0 0.0 3.5 0.00 0.00 0.00 67 1017.4
20260905191608 86 0 0.0 2.6 0.00 0.00 0.00 64 1017.3
20260905184608 84 0 0.0 4.3 0.00 0.00 0.00 70 1017.4
20260905183057 83 0 0.9 4.3 0.00 0.00 0.00 69 1017.7
20260905181604 81 0 0.0 1.7 0.00 0.00 0.00 72 1017.9
20260905180109 81 0 0.0 2.6 0.00 0.00 0.00 75 1018.1
20260905174559 79 0 0.0 2.6 0.00 0.00 0.00 78 1018.2
20260905173114 80 0 0.0 0.9 0.00 0.00 0.00 78 1018.3
20260905171603 77 0 0.0 1.7 0.00 0.00 0.00 82 1018.7
20260905170110 78 0 0.0 0.9 0.00 0.00 0.00 80 1018.4
20260905164609 77 0 0.0 0.9 0.00 0.00 0.00 80 1018.3
20260905163103 76 0 0.0 0.9 0.00 0.00 0.00 82 1018.6
20260905161606 78 0 0.0 1.7 0.00 0.00 0.00 81 1018.2
20260905160100 77 0 0.0 2.6 0.00 0.00 0.00 83 1018.1
20260905154610 76 118 0.9 3.5 0.00 0.00 0.00 84 1018.0
20260905153104 76 105 1.7 4.3 0.00 0.00 0.00 86 1018.1
20260905151604 73 66 1.7 3.5 0.00 0.00 0.00 92 1018.3